Content
SEND FEEDBACK

Daily
Averages
Monthly
Summary
United States of America

MADERA, CALIFORNIA


Home > North America > United States > California
Elevation: 253 feet     Latitude: 36 59N     Longitude: 120 06W

WEATHER
 
SELECT A DAY
Number of Records: 154,501;   Date Range: 9/2/98 - 11/26/14
 
SHARE

PRINT THIS DATA

[ ← Previous Day ]
WEATHER ALMANAC - FEBRUARY 25, 2013
[ Next Day → ]
[ °C ]   °F
Weather ElementAverageHighLow
Temperature49.2 °F64 °F (3:53 pm)36 °F (3:53 am)
Dewpoint36 °F37.9 °F (9:53 am)32 °F (5:53 am)
Humidity64.3 %89 % (1:53 am)35 % (2:53 pm)
Barometer30.21 in30.29 in (1:53 am)30.14 in (4:53 pm)
Wind Speed3.7 mph8.1 mph (3:53 pm)
Weather ElementAverage
Visibility10 mi
Wind DirectionSSE (141.3 °)

Weather ElementTotal
Precipitation---
Heating Degree Days15 (Base 65)
Averaged from 23 records on February 25, 2013
WEATHER CONDITIONS BREAKOUT
WIND DIRECTION BREAKOUT
WEATHER BY HOUR - FEBRUARY 25, 2013
[ °C ]   °F
Local TimeTemperatureDewpointHumidityBarometerVisibilityWind DirectionWind SpeedGust SpeedPrecipitationEventsConditions
1:53 AM37.9 °F35.1 °F89 %30.29 in10.0 miCalmClear
2:53 AM37.9 °F34.0 °F86 %30.28 in9.0 miENE (60°)5.8 mphClear
3:53 AM36.0 °F33.1 °F89 %30.26 in10.0 miEast (80°)3.5 mphClear
4:53 AM37.9 °F33.1 °F83 %30.27 in10.0 miCalmClear
5:53 AM36.0 °F32.0 °F86 %30.29 in10.0 miENE (70°)4.6 mphClear
6:53 AM37.0 °F33.1 °F86 %30.29 in10.0 miEast (100°)3.5 mphClear
7:53 AM42.1 °F36.0 °F79 %30.26 in10.0 miESE (120°)5.8 mphClear
8:53 AM48.9 °F37.0 °F64 %30.27 in10.0 miSSE (160°)3.5 mphClear
9:53 AM52.0 °F37.9 °F59 %30.27 in10.0 miCalmClear
10:53 AM55.9 °F37.9 °F51 %30.25 in10.0 miVariable3.5 mphClear
11:53 AM59.0 °F36.0 °F42 %30.23 in10.0 miSouth (180°)3.5 mphClear
12:53 PM61.0 °F37.0 °F41 %30.19 in10.0 miVariable5.8 mphClear
1:53 PM63.0 °F36.0 °F37 %30.18 in10.0 miCalmClear
2:53 PM63.0 °F35.1 °F35 %30.16 in10.0 miVariable3.5 mphClear
3:53 PM64.0 °F36.0 °F35 %30.15 in10.0 miNNW (340°)8.1 mphClear
4:53 PM62.1 °F36.0 °F38 %30.14 in10.0 miNNW (330°)8.1 mphClear
5:53 PM59.0 °F37.0 °F44 %30.15 in10.0 miNNW (330°)3.5 mphClear
6:53 PM55.0 °F37.9 °F53 %30.16 in10.0 miNNW (330°)3.5 mphClear
7:53 PM50.0 °F37.0 °F61 %30.16 in10.0 miNW (310°)3.5 mphClear
8:53 PM48.0 °F37.9 °F68 %30.17 in10.0 miCalmClear
9:53 PM43.0 °F37.9 °F82 %30.17 in10.0 miWest (280°)6.9 mphClear
10:53 PM41.0 °F37.0 °F86 %30.18 in10.0 miWSW (250°)3.5 mphClear
11:53 PM42.1 °F37.9 °F85 %30.17 in10.0 miNW (310°)5.8 mphClear
Hourly data recorded from KMAE, located miles away from Madera, California







STORIES FROM OUR PARTNERS